Regional Weather Roundup
Issued by NWS

Home | Current Version | Previous Version | Text Only | Print | Product List | Glossary On
Versions: 1 2 3 4 5 6 7 8 9 10 11 12 13 14 15 16 17 18 19 20 21 22 23 24 25 26 27 28 29 30 31 32 33 34 35 36 37 38 39 40 41 42 43 44 45 46 47 48
000
ASUS45 KREV 030810
RWRNV
NEVADA REGIONAL WEATHER ROUNDUP
NATIONAL WEATHER SERVICE RENO NV
100 AM PDT MON AUG 03 2015

NOTE: "FAIR" INDICATES FEW OR NO CLOUDS BELOW 12,000 FEET WITH NO
SIGNIFICANT WEATHER AND/OR OBSTRUCTIONS TO VISIBILITY.

NVZ001-003-004-030900-
WESTERN NEVADA

CITY           SKY/WX    TMP DP  RH WIND       PRES   REMARKS
RENO           MOCLDY    69  51  52 SW6       30.06F
CARSON CITY    FAIR      64  48  55 E3        30.08S
MINDEN         FAIR      55  48  76 S5        30.08F
SLIDE MTN        N/A     54  41  62 CALM        N/A
PYRAMID LAKE     N/A     73 N/A N/A S3          N/A
FALLON         PTCLDY    63  46  54 CALM      30.00R
LOVELOCK       MOCLDY    73  51  46 N6        30.00S
HAWTHORNE      CLEAR     73  48  40 W7        30.02R
$$

NVZ002-CAZ072-073-030900-
NORTHERN AND CENTRAL SIERRA

CITY           SKY/WX    TMP DP  RH WIND       PRES   REMARKS
S. LAKE TAHOE  PTCLDY    52  45  77 S3        30.18F
TRUCKEE        PTCLDY    52  46  82 CALM      30.17F
SQUAW VLY 8000   N/A     52  41  66 CALM        N/A
SUSANVILLE     CLEAR     59  50  72 NW3       30.07F
BLUE CANYON    PTCLDY    66  45  46 N3        30.12F
MAMMOTH LAKES  FAIR      57  39  51 SW5       30.23S
BRIDGEPORT     FAIR      50  36  58 CALM      30.21S
$$

NVZ030-031-036-030900-
NORTHERN NEVADA

CITY           SKY/WX    TMP DP  RH WIND       PRES   REMARKS
ELKO           CLOUDY    70  48  45 SW7       30.07S
WINNEMUCCA     CLOUDY    67  52  58 NW9       30.04F
WENDOVER       CLOUDY    81  45  28 S10       29.97S
$$

NVZ035-037-030900-
CENTRAL NEVADA

CITY           SKY/WX    TMP DP  RH WIND       PRES   REMARKS
ELY            CLOUDY    61  43  51 S6        30.15S
EUREKA           N/A     63  48  58 S5        30.13R
$$

NVZ013-014-030900-
SOUTH CENTRAL NEVADA

CITY           SKY/WX    TMP DP  RH WIND       PRES   REMARKS
TONOPAH        PTCLDY    67  46  47 N10       30.08R
$$

NVZ017-020-022-030900-
SOUTHERN NEVADA

CITY           SKY/WX    TMP DP  RH WIND       PRES   REMARKS
LAS VEGAS      CLEAR     89  41  18 W3        29.77S
N. LAS VEGAS   CLEAR     86  50  28 NW6       29.80F
NELLIS AFB     CLEAR     86  50  28 NE2       29.78S
HENDERSON      CLEAR     85  44  23 S13       29.85S
MERCURY        CLEAR     76  42  29 NE3       29.89S
$$


USA.gov is the U.S. government's official web portal to all federal, state and local government web resources and services.